Regional Weather Roundup
Issued by NWS

Home | Current Version | Previous Version | Text Only | Print | Product List | Glossary On
Versions: 1 2 3 4 5 6 7 8 9 10 11 12 13 14 15 16 17 18 19 20 21 22 23 24 25
000
ASUS44 KLIX 130410
RWRLA
LOUISIANA WEATHER ROUNDUP
NATIONAL WEATHER SERVICE NEW ORLEANS LA
1100 PM CDT FRI APR 12 2024

NOTE: "FAIR" INDICATES FEW OR NO CLOUDS BELOW 12,000 FEET WITH NO
      SIGNIFICANT WEATHER AND/OR OBSTRUCTIONS TO VISIBILITY.
      SKY/WX - SKY CONDITION AND SIGNIFICANT WEATHER.
      TMP - AIR TEMPERATURE.    DP   - DEWPOINT TEMPERATURE.
      RH  - RELATIVE HUMIDITY.  PRES - PRESSURE.
      HX  - HEAT INDEX.         WCI  - WIND CHILL INDEX.

*  THESE STATIONS ARE NOT NWS OR FAA STATIONS AND ARE NOT UNDER
   NWS QUALITY CONTROL.

LAZ048-061-063-065-066-069-076-077-130500-
SOUTHEAST LOUISIANA

CITY           SKY/WX    TMP DP  RH WIND       PRES   REMARKS
N.O. INTL ARPT PTCLDY    65  48  54 CALM      30.28R
N.O. LAKEFRONT CLEAR     70  51  51 W6        30.28R
RESERVE*       CLEAR     61  59  94 CALM      30.29R
SLIDELL        CLEAR     58  53  84 CALM      30.28R
BATON ROUGE    CLEAR     58  49  72 CALM      30.28R
BELLE CHASSE*  CLEAR     54  51  90 CALM      30.28R
GALLIANO*      CLEAR     60  56  84 CALM      30.29R
NEW ROADS*       N/A     58  53  85 CALM      30.29R
GONZALES*      CLEAR     56  51  85 CALM      30.28R
HAMMOND*       CLEAR     54  50  86 CALM      30.29R
HOUMA*         CLEAR     57  55  91 CALM      30.30R

$$

LAZ041-044-053-054-130500-
SOUTHWEST LOUISIANA

CITY           SKY/WX    TMP DP  RH WIND       PRES   REMARKS
LAKE CHARLES   CLEAR     64  56  75 SW5       30.29R
LAFAYETTE      CLEAR     62  60  93 CALM      30.28S
PATTERSON      NOT AVBL
SALT POINT       N/A     68  56  65 W6        30.28R
NEW IBERIA     CLEAR     59  53  80 SW6       30.28R
CHENAULT AIRPK CLEAR     65  53  65 SW7       30.29R

$$

LAZ027-028-130500-
CENTRAL LOUISIANA

CITY           SKY/WX    TMP DP  RH WIND       PRES   REMARKS
FORT POLK      CLEAR     60  49  68 CALM      30.27R
ALEXANDRIA INT CLEAR     60  49  66 SE5       30.27R
ALEXANDRIA     CLEAR     55  50  83 CALM      30.26S

$$

LAZ001-002-130500-
NORTHWEST LOUISIANA

CITY           SKY/WX    TMP DP  RH WIND       PRES   REMARKS
SHREVEPORT     CLEAR     64  50  59 S3        30.24R
BARKSDALE AFB  CLEAR     62  50  65 S6        30.23S
DTN SHREVEPORT CLEAR     66  47  50 S6        30.24R

$$

LAZ014-016-130500-
NORTHEAST LOUISIANA

CITY           SKY/WX    TMP DP  RH WIND       PRES   REMARKS
MONROE         CLEAR     59  52  77 CALM      30.27R
TALLULAH       CLEAR     62  55  77 CALM      30.27R

$$




USA.gov is the U.S. government's official web portal to all federal, state and local government web resources and services.